Weather History for Copper Mountain, CO

Change the Weather History Date:

Friday, February 28, 2014

  Actual Average (KLXV) Record (KLXV)
Temperature  
Mean Temperature 24 °F -  
Max Temperature 30 °F 34 °F 49 °F (1986)
Min Temperature 19 °F 7 °F -10 °F (2013)
Degree Days  
Heating Degree Days 42 45  
Month to date heating degree days 1312  
Since 1 July heating degree days 7710  
Cooling Degree Days 0 0  
Month to date cooling degree days 0  
Year to date cooling degree days 0  
Moisture  
Dew Point 16 °F    
Average Humidity 70    
Maximum Humidity 86    
Minimum Humidity 43    
Precipitation  
Precipitation 0.00 in 0.03 in 0.40 in (2012)
Month to date precipitation 0.70  
Year to date precipitation 1.32  
Sea Level Pressure  
Sea Level Pressure 29.86 in    
Wind  
Wind Speed 18 mph (SW)    
Max Wind Speed 26 mph    
Max Gust Speed 36 mph    
Visibility 2 miles    
Events Snow    
T = Trace of Precipitation, MM = Missing Value Source: NWS Daily Summary

Daily Weather History Graph

Daily Weather History Graph

Search for Another Location

Airport:

Trip Planner

Search our weather history database for the weather conditions in past years. The results will help you decide how hot, cold, wet, or windy it might be!

Date:

Astronomy

Feb. 28, 2014 Rise Set
Actual Time 6:38 AM MST 5:55 PM MST
Civil Twilight 6:11 AM MST 6:22 PM MST
Nautical Twilight 5:40 AM MST 6:54 PM MST
Astronomical Twilight 5:09 AM MST 7:25 PM MST
Moon 5:55 AM MST (2/28) 5:36 PM MST (2/28)
Length of Visible Light 12h 11m
Length of Day
11h 17m
Waning Crescent, 0% of the Moon is Illuminated
Feb 28
Waning Crescent
Mar 1
New
Mar 8
First Quarter
Mar 16
Full
Mar 23
Last Quarter

Hourly Weather History & Observations

Time (MST) Temp. Windchill Dew Point Humidity Pressure Visibility Wind Dir Wind Speed Gust Speed Precip Events Conditions
12:16 AM 24.8 °F 12.4 °F 19.4 °F 80% 29.74 in 1.0 mi West 15.0 mph - N/A Snow Light Snow
12:36 AM 24.8 °F 11.1 °F 19.4 °F 80% 29.75 in 0.8 mi West 18.4 mph 31.1 mph N/A Snow Light Snow
12:56 AM 24.8 °F 11.1 °F 19.4 °F 80% 29.76 in 1.2 mi West 18.4 mph 21.9 mph N/A Snow Light Snow
1:16 AM 23.0 °F 6.6 °F 19.4 °F 86% 29.76 in 1.5 mi West 25.3 mph 28.8 mph N/A Snow Light Snow
1:36 AM 23.0 °F 8.0 °F 19.4 °F 86% 29.77 in 0.5 mi West 20.7 mph 29.9 mph N/A Snow Light Snow
1:56 AM 23.0 °F 10.1 °F 17.6 °F 80% 29.77 in 0.8 mi West 15.0 mph 25.3 mph N/A Snow Light Snow
2:16 AM 23.0 °F 8.3 °F 17.6 °F 80% 29.77 in 0.8 mi West 19.6 mph 24.2 mph N/A Snow Light Snow
2:36 AM 23.0 °F 9.2 °F 17.6 °F 80% 29.77 in 1.2 mi WSW 17.3 mph 21.9 mph N/A Snow Light Snow
2:56 AM 23.0 °F 10.6 °F 17.6 °F 80% 29.78 in 1.2 mi WSW 13.8 mph 20.7 mph N/A Snow Light Snow
3:16 AM 23.0 °F 8.7 °F 17.6 °F 80% 29.78 in 1.0 mi West 18.4 mph 24.2 mph N/A Snow Light Snow
3:36 AM 23.0 °F 10.6 °F 17.6 °F 80% 29.79 in 0.5 mi West 13.8 mph 19.6 mph N/A Snow Snow
3:56 AM 23.0 °F 9.2 °F 17.6 °F 80% 29.79 in 0.5 mi West 17.3 mph - N/A Snow Light Snow
4:16 AM 23.0 °F 9.2 °F 17.6 °F 80% 29.79 in 1.5 mi West 17.3 mph - N/A Snow Light Snow
4:36 AM 23.0 °F 8.0 °F 17.6 °F 80% 29.79 in 0.8 mi West 20.7 mph - N/A Snow Light Snow
4:56 AM 23.0 °F 8.0 °F 17.6 °F 80% 29.79 in 0.5 mi West 20.7 mph - N/A Snow Light Snow
5:16 AM 23.0 °F 7.2 °F 17.6 °F 80% 29.79 in 0.8 mi West 23.0 mph 28.8 mph N/A Snow Light Snow
5:36 AM 23.0 °F 7.6 °F 17.6 °F 80% 29.79 in 1.0 mi West 21.9 mph - N/A Snow Light Snow
5:56 AM 23.0 °F 7.6 °F 17.6 °F 80% 29.80 in 1.8 mi West 21.9 mph 32.2 mph N/A Snow Light Snow
6:16 AM 23.0 °F 6.3 °F 17.6 °F 80% 29.80 in 0.8 mi West 26.5 mph 34.5 mph N/A Snow Light Snow
6:36 AM 23.0 °F - 17.6 °F 80% 29.80 in 0.8 mi North - - N/A Snow Light Snow
6:56 AM 23.0 °F 7.6 °F 17.6 °F 80% 29.81 in 0.5 mi West 21.9 mph - N/A Snow Snow
7:16 AM 23.0 °F - 17.6 °F 80% 29.81 in 0.5 mi North - - N/A Snow Light Snow
7:36 AM 23.0 °F 7.6 °F 17.6 °F 80% 29.81 in 0.2 mi West 21.9 mph 29.9 mph N/A Snow Light Snow
7:56 AM 23.0 °F 11.1 °F 17.6 °F 80% 29.84 in 0.5 mi West 12.7 mph - N/A Snow Snow
8:16 AM 23.0 °F 8.3 °F 17.6 °F 80% 29.85 in 0.5 mi West 19.6 mph 26.5 mph N/A Snow Snow
8:36 AM 23.0 °F 9.6 °F 17.6 °F 80% 29.86 in 0.5 mi WSW 16.1 mph 23.0 mph N/A Snow Snow
8:56 AM 21.2 °F 6.4 °F 14.0 °F 74% 29.86 in 0.5 mi SW 18.4 mph 32.2 mph N/A Snow Light Snow
9:16 AM 19.4 °F 6.6 °F 14.0 °F 80% 29.88 in 1.0 mi SW 12.7 mph 25.3 mph N/A Snow Light Snow
9:36 AM 21.2 °F 7.8 °F 15.8 °F 80% 29.88 in 1.2 mi SW 15.0 mph 21.9 mph N/A Snow Light Snow
9:56 AM 19.4 °F 4.1 °F 14.0 °F 80% 29.88 in 1.8 mi WSW 18.4 mph - N/A Snow Light Snow
10:16 AM 21.2 °F 6.0 °F 14.0 °F 74% 29.88 in 2.5 mi WSW 19.6 mph 26.5 mph N/A Snow Light Snow
10:36 AM 23.0 °F 8.0 °F 15.8 °F 74% 29.89 in 1.5 mi WSW 20.7 mph 34.5 mph N/A   Haze
10:56 AM 23.0 °F 8.0 °F 14.0 °F 68% 29.89 in 2.5 mi West 20.7 mph 27.6 mph N/A   Haze
11:15 AM 23.0 °F 8.0 °F 14.0 °F 68% 29.90 in - West 20.7 mph 29.9 mph N/A Snow Light Snow
11:36 AM 24.8 °F 10.3 °F 12.2 °F 59% 29.89 in 2.0 mi WSW 20.7 mph 34.5 mph N/A Snow Light Snow
11:56 AM 24.8 °F 9.0 °F 12.2 °F 59% 29.89 in 0.8 mi WSW 25.3 mph 34.5 mph N/A Snow Light Snow
12:16 PM 24.8 °F 9.6 °F 12.2 °F 59% 29.89 in 3.0 mi West 23.0 mph 31.1 mph N/A   Haze
12:36 PM 26.6 °F 14.3 °F 10.4 °F 51% 29.89 in 7.0 mi SW 16.1 mph 28.8 mph N/A   Scattered Clouds
12:56 PM 26.6 °F 13.8 °F 10.4 °F 51% 29.88 in 7.0 mi WSW 17.3 mph 25.3 mph N/A   Clear
1:16 PM 26.6 °F 12.4 °F 10.4 °F 51% 29.87 in 3.0 mi WSW 21.9 mph 31.1 mph N/A   Haze
1:36 PM 26.6 °F 15.7 °F 10.4 °F 51% 29.88 in 7.0 mi SW 12.7 mph 23.0 mph N/A   Clear
1:56 PM 28.4 °F 16.2 °F 10.4 °F 47% 29.88 in 7.0 mi WSW 17.3 mph 24.2 mph N/A   Scattered Clouds
2:16 PM 28.4 °F 17.5 °F 8.6 °F 43% 29.89 in 4.0 mi SW 13.8 mph 29.9 mph N/A   Haze
2:36 PM 28.4 °F 20.4 °F 10.4 °F 47% 29.89 in 10.0 mi SSW 8.1 mph 18.4 mph N/A   Clear
2:56 PM 28.4 °F 18.0 °F 8.6 °F 43% 29.89 in 7.0 mi SW 12.7 mph 23.0 mph N/A   Mostly Cloudy
3:16 PM 28.4 °F 19.1 °F 8.6 °F 43% 29.89 in 10.0 mi SSW 10.4 mph 24.2 mph N/A   Overcast
3:36 PM 26.6 °F 15.2 °F 6.8 °F 43% 29.89 in 7.0 mi SSW 13.8 mph 27.6 mph N/A   Overcast
3:56 PM 26.6 °F 17.5 °F 6.8 °F 43% 29.90 in 10.0 mi SSW 9.2 mph 17.3 mph N/A   Overcast
4:16 PM 26.6 °F 12.7 °F 8.6 °F 47% 29.89 in 3.0 mi WSW 20.7 mph 26.5 mph N/A Snow Light Snow
4:36 PM 24.8 °F 13.4 °F 10.4 °F 54% 29.90 in 7.0 mi SW 12.7 mph 17.3 mph N/A   Overcast
4:56 PM 24.8 °F 13.4 °F 12.2 °F 59% 29.89 in 7.0 mi SSW 12.7 mph 19.6 mph N/A   Overcast
5:16 PM 24.8 °F 9.3 °F 12.2 °F 59% 29.89 in 1.2 mi SW 24.2 mph 31.1 mph N/A Snow Light Snow
5:36 PM 24.8 °F 13.4 °F 14.0 °F 64% 29.90 in 4.0 mi SW 12.7 mph 27.6 mph N/A   Haze
5:56 PM 23.0 °F 7.6 °F 14.0 °F 68% 29.90 in 3.0 mi South 21.9 mph - N/A Snow Light Snow
6:16 PM 24.8 °F 9.6 °F 17.6 °F 74% 29.89 in 1.0 mi South 23.0 mph 31.1 mph N/A Snow Light Snow
6:36 PM 23.0 °F 7.6 °F 17.6 °F 80% 29.91 in 1.2 mi South 21.9 mph 25.3 mph N/A Snow Light Snow
6:56 PM 23.0 °F 11.1 °F 17.6 °F 80% 29.91 in 1.5 mi SSW 12.7 mph 26.5 mph N/A Snow Light Snow
7:16 PM 26.6 °F 15.2 °F 17.6 °F 69% 29.91 in 3.0 mi SSW 13.8 mph 19.6 mph N/A Snow Light Snow
7:36 PM 28.4 °F 15.1 °F 19.4 °F 69% 29.90 in 0.8 mi SSW 20.7 mph 32.2 mph N/A Snow Light Snow
7:56 PM 28.4 °F 15.4 °F 19.4 °F 69% 29.91 in 0.8 mi SW 19.6 mph 32.2 mph N/A Snow Light Snow
8:16 PM 28.4 °F 18.0 °F 21.2 °F 74% 29.91 in 1.0 mi SW 12.7 mph 28.8 mph N/A Snow Light Snow
8:36 PM 28.4 °F 16.2 °F 21.2 °F 74% 29.90 in 0.8 mi SW 17.3 mph 34.5 mph N/A Snow Light Snow
8:56 PM 28.4 °F 14.4 °F 21.2 °F 74% 29.90 in 0.5 mi SW 23.0 mph 32.2 mph N/A Snow Light Snow
9:16 PM 28.4 °F 17.0 °F 21.2 °F 74% 29.91 in 2.5 mi SW 15.0 mph 23.0 mph N/A Snow Light Snow
9:36 PM 28.4 °F 16.2 °F 21.2 °F 74% 29.91 in 1.2 mi South 17.3 mph 23.0 mph N/A Snow Light Snow
9:56 PM 28.4 °F 15.1 °F 21.2 °F 74% 29.90 in 1.0 mi South 20.7 mph 26.5 mph N/A Snow Light Snow
10:16 PM 28.4 °F 17.5 °F 21.2 °F 74% 29.90 in 2.5 mi SSW 13.8 mph 25.3 mph N/A Snow Light Snow
10:36 PM 28.4 °F 18.5 °F 21.2 °F 74% 29.90 in 2.0 mi SSW 11.5 mph 28.8 mph N/A Snow Light Snow
10:56 PM 28.4 °F 15.8 °F 21.2 °F 74% 29.89 in 0.5 mi SSW 18.4 mph 33.4 mph N/A Snow Light Snow
11:16 PM 28.4 °F 16.2 °F 21.2 °F 74% 29.88 in 0.5 mi South 17.3 mph 28.8 mph N/A Snow Light Snow
11:36 PM 28.4 °F 15.8 °F 21.2 °F 74% 29.87 in 0.5 mi South 18.4 mph 34.5 mph N/A Snow Light Snow
11:56 PM 30.2 °F 17.1 °F 23.0 °F 75% 29.86 in 0.2 mi South 21.9 mph 35.7 mph N/A Snow Light Snow